Tracking 29892 objects as of 21-Nov-2024
HD Live streaming from Space Station
objects crossing your sky now

STARLINK-3059

Track STARLINK-3059 now!
10-day predictions
STARLINK-3059 is classified as:


NORAD ID: 49181
Int'l Code: 2021-082BD
Perigee: 576.9 km
Apogee: 581.4 km
Inclination: 70.0 °
Period: 96.1 minutes
Semi major axis: 6950 km
RCS: Unknown
Launch date: September 14, 2021
Source: United States (US)
Launch site: AIR FORCE WESTERN TEST RANGE (AFWTR)
Your satellite tracking list
Your tracking list is empty




NASA's NSSDC Master Catalog

Two Line Element Set (TLE):
1 49181U 21082BD  24325.20495185  .00000874  00000-0  81073-4 0  9998
2 49181  69.9990  50.8000 0003225 269.2685  90.8104 14.98332279176093
Source of the keplerian elements: AFSPC